SGDC

Last updated on Tue Sep 22 2026 00:03:14 GMT+0000 (Coordinated Universal Time)

1 42692U 17023B 26264.20763534 -.00000254 00000+0 00000+0 0 9996 2 42692 0.0274 79.7865 0002315 104.1740 176.0500 1.00272214 34362
UTC large
Height (km)
Speed (km/s)
/
Latitude / Longitude
Inclination (degrees)
Orbital Period (minutes)
Azimuth
Elevation
Range (km)
Doppler Factor

Next 0 passes for location: London (51.5072 / 0.1276)

No passes found over London.
SGDC